,

(GMT )
Hart Island

Weather History for CWRN - September, 2012

Change the Weather History Date:

Sunday, September 2, 2012

  Actual Average Record
Temperature  
Mean Temperature 58 °F -  
Max Temperature 63 °F - - ()
Min Temperature 52 °F - - ()
Degree Days  
Heating Degree Days 8    
Growing Degree Days 8 (Base 50)    
Moisture  
Dew Point 50 °F    
Average Humidity 73    
Maximum Humidity 89    
Minimum Humidity 53    
Precipitation  
Precipitation 0.00 in - - ()
Sea Level Pressure  
Sea Level Pressure 30.18 in    
Wind  
Wind Speed 8 mph ()    
Max Wind Speed 13 mph    
Max Gust Speed -    
T = Trace of Precipitation, MM = Missing Value Source: Averaged Metar Reports

Daily Weather History Graph

Daily Weather History Graph

Search for Another Location

Airport or City:

Trip Planner

Search our weather history database for the weather conditions in past years. The results will help you decide how hot, cold, wet, or windy it might be!

Date:

Astronomy

Sep. 02, 2012 Rise Set
Actual Time 6:27 AM ADT 7:38 PM ADT
Civil Twilight 5:56 AM ADT 8:09 PM ADT
Nautical Twilight 5:20 AM ADT 8:45 PM ADT
Astronomical Twilight 4:41 AM ADT 9:24 PM ADT
Moon 8:13 PM ADT (9/2) 8:40 AM ADT (9/2)
Length of Visible Light 14h 12m
Length of Day
13h 11m
Waning Gibbous, 96% of the Moon is Illuminated
Sep 2
Waning Gibbous
Sep 8
Last Quarter
Sep 15
New
Sep 22
First Quarter
Sep 30
Full

Hourly Weather History & Observations

Time (ADT) Temp. Dew Point Humidity Pressure Visibility Wind Dir Wind Speed Gust Speed Precip Events Conditions
12:00 AM 55.8 °F 46.4 °F 71% 30.11 in - North 10.4 mph - N/A   Unknown
1:00 AM 56.1 °F 47.3 °F 72% 30.11 in - NNW 11.5 mph - N/A   Unknown
2:00 AM 55.2 °F 48.7 °F 79% 30.11 in - NW 11.5 mph - N/A   Unknown
3:00 AM 56 °F 49 °F 69% 30.13 in - NNW 10.4 mph - -  
3:00 AM 55.6 °F 48.6 °F 77% 30.13 in - NNW 10.4 mph - N/A   Unknown
4:00 AM 55.8 °F 48.7 °F 77% 30.12 in - North 10.4 mph - N/A   Unknown
5:00 AM 55.8 °F 48.9 °F 78% 30.13 in - North 8.1 mph - N/A   Unknown
6:00 AM 52.9 °F 49.8 °F 89% 30.15 in - WNW 8.1 mph - N/A   Unknown
7:00 AM 53.2 °F 49.3 °F 86% 30.17 in - WNW 6.9 mph - N/A   Unknown
8:00 AM 55.8 °F 50.2 °F 82% 30.18 in - WNW 6.9 mph - N/A   Unknown
9:00 AM 57 °F 51 °F 74% 30.19 in - WNW 5.8 mph - -  
9:00 AM 57.0 °F 50.9 °F 80% 30.19 in - WNW 5.8 mph - N/A   Unknown
10:00 AM 57.6 °F 51.1 °F 79% 30.20 in - NW 5.8 mph - N/A   Unknown
11:00 AM 59.7 °F 50.7 °F 72% 30.21 in - NNW 3.5 mph - N/A   Unknown
12:00 PM 61.9 °F 48.7 °F 62% 30.21 in - North 4.6 mph - N/A   Unknown
1:00 PM 63.7 °F 48.4 °F 57% 30.20 in - ESE 5.8 mph - N/A   Unknown
2:00 PM 63.3 °F 49.8 °F 61% 30.20 in - SE 6.9 mph - N/A   Unknown
3:00 PM 63 °F 50 °F 53% 30.20 in - ESE 11.5 mph - -  
3:00 PM 62.6 °F 50.0 °F 63% 30.20 in - ESE 11.5 mph - N/A   Unknown
4:00 PM 63.3 °F 51.1 °F 64% 30.20 in - SSE 12.7 mph - N/A   Unknown
5:00 PM 62.8 °F 50.5 °F 64% 30.19 in - SSE 12.7 mph - N/A   Unknown
6:00 PM 61.3 °F 51.4 °F 70% 30.20 in - South 9.2 mph - N/A   Unknown
7:00 PM 59.7 °F 50.5 °F 72% 30.21 in - South 4.6 mph - N/A   Unknown
8:00 PM 57.7 °F 51.3 °F 79% 30.22 in - South 5.8 mph - N/A   Unknown
9:00 PM 57 °F 52 °F 77% 30.22 in - ESE 2.3 mph - -  
9:00 PM 56.7 °F 51.8 °F 84% 30.22 in - ESE 2.3 mph - N/A   Unknown
10:00 PM 56.7 °F 52.7 °F 87% 30.22 in - SE 3.5 mph - N/A   Unknown
11:00 PM 57.9 °F 51.6 °F 80% 30.23 in - SSE 6.9 mph - N/A   Unknown